UAL4942 KPVD-KSYR

Flight info

Callsign UAL4942
Flight time 0h 48m
Altitude 33000
Route PUT ALB/N0370F160 T608 SYR
Aircraft B38M/M-SDE1FGHILORVWXY/HB1

Departure

Time 2026-04-27 22:43
Airport Rhode Island T. F. Green International Airport (KPVD)

Arrival

Time 2026-04-27 23:32
Airport Syracuse Hancock International Airport (KSYR)
Time Latitude Longitude Altitude Speed Heading
2026-04-27 22:03 41.72630 -71.43398 67 ft 0 kts 298°
2026-04-27 22:24 41.72585 -71.43336 66 ft 0 kts 212°
2026-04-27 22:25 41.72630 -71.43398 67 ft 0 kts 301°
2026-04-27 22:28 41.72628 -71.43394 67 ft 0 kts 301°
2026-04-27 22:30 41.72623 -71.43381 59 ft 0 kts 301°
2026-04-27 22:30 41.72604 -71.43320 64 ft 0 kts 211°
2026-04-27 22:33 41.72603 -71.43321 67 ft 1 kts 211°
2026-04-27 22:33 41.72586 -71.43327 62 ft 5 kts 184°
2026-04-27 22:33 41.72544 -71.43300 63 ft 6 kts 152°
2026-04-27 22:33 41.72508 -71.43297 62 ft 5 kts 197°
2026-04-27 22:34 41.72482 -71.43316 62 ft 3 kts 212°
2026-04-27 22:34 41.72456 -71.43338 64 ft 6 kts 212°
2026-04-27 22:34 41.72417 -71.43372 59 ft 8 kts 213°
2026-04-27 22:34 41.72365 -71.43414 62 ft 10 kts 211°
2026-04-27 22:35 41.72302 -71.43465 60 ft 11 kts 211°
2026-04-27 22:35 41.72231 -71.43525 56 ft 12 kts 212°
2026-04-27 22:35 41.72156 -71.43588 61 ft 13 kts 212°
2026-04-27 22:35 41.72094 -71.43640 59 ft 9 kts 212°
2026-04-27 22:36 41.72031 -71.43649 58 ft 10 kts 152°
2026-04-27 22:36 41.71982 -71.43571 55 ft 12 kts 122°
2026-04-27 22:36 41.71939 -71.43482 56 ft 11 kts 123°
2026-04-27 22:36 41.71897 -71.43392 60 ft 11 kts 122°
2026-04-27 22:37 41.71847 -71.43317 60 ft 11 kts 151°
2026-04-27 22:37 41.71792 -71.43314 59 ft 2 kts 213°
2026-04-27 22:37 41.71770 -71.43344 57 ft 8 kts 225°
2026-04-27 22:37 41.71723 -71.43385 57 ft 8 kts 212°
2026-04-27 22:38 41.71682 -71.43419 58 ft 6 kts 212°
2026-04-27 22:38 41.71652 -71.43444 59 ft 5 kts 212°
2026-04-27 22:38 41.71619 -71.43472 62 ft 6 kts 212°
2026-04-27 22:38 41.71579 -71.43505 63 ft 8 kts 212°
2026-04-27 22:39 41.71523 -71.43552 63 ft 11 kts 212°
2026-04-27 22:39 41.71458 -71.43587 61 ft 7 kts 174°
2026-04-27 22:39 41.71453 -71.43586 63 ft 0 kts 166°
2026-04-27 22:41 41.71449 -71.43584 63 ft 4 kts 159°
2026-04-27 22:41 41.71428 -71.43559 64 ft 4 kts 128°
2026-04-27 22:42 41.71412 -71.43519 64 ft 6 kts 114°
2026-04-27 22:42 41.71420 -71.43470 63 ft 6 kts 55°
2026-04-27 22:42 41.71466 -71.43427 67 ft 18 kts 32°
2026-04-27 22:42 41.71787 -71.43157 54 ft 92 kts 32°
2026-04-27 22:43 41.72509 -71.42552 69 ft 149 kts 32°
2026-04-27 22:43 41.73380 -71.41812 560 ft 158 kts 34°
2026-04-27 22:43 41.74487 -71.40909 377 ft 218 kts 34°
2026-04-27 22:43 41.75838 -71.39764 1001 ft 236 kts 34°
2026-04-27 22:44 41.77348 -71.38755 1455 ft 264 kts 10°
2026-04-27 22:44 41.79120 -71.39046 1493 ft 259 kts 336°
2026-04-27 22:44 41.80423 -71.40506 2298 ft 242 kts 311°
2026-04-27 22:44 41.81383 -71.42428 2484 ft 250 kts 315°
2026-04-27 22:45 41.82479 -71.44230 3063 ft 262 kts 296°
2026-04-27 22:45 41.82985 -71.46609 3626 ft 270 kts 285°
2026-04-27 22:45 41.83440 -71.49074 4176 ft 272 kts 291°
2026-04-27 22:45 41.84161 -71.51422 4714 ft 269 kts 300°
2026-04-27 22:46 41.85024 -71.53671 5347 ft 272 kts 301°
2026-04-27 22:46 41.85854 -71.55961 6017 ft 274 kts 298°
2026-04-27 22:46 41.86628 -71.58281 6679 ft 274 kts 298°
2026-04-27 22:46 41.87400 -71.60588 7309 ft 276 kts 298°
2026-04-27 22:47 41.88212 -71.62935 7957 ft 279 kts 299°
2026-04-27 22:47 41.89031 -71.65299 8609 ft 282 kts 299°
2026-04-27 22:47 41.89850 -71.67700 9350 ft 283 kts 299°
2026-04-27 22:47 41.90665 -71.70094 10136 ft 287 kts 299°
2026-04-27 22:48 41.91502 -71.72539 10849 ft 290 kts 299°
2026-04-27 22:48 41.92347 -71.75010 11604 ft 293 kts 299°
2026-04-27 22:48 41.93197 -71.77506 12363 ft 295 kts 298°
2026-04-27 22:48 41.94052 -71.80015 13121 ft 296 kts 298°
2026-04-27 22:49 41.94908 -71.82532 13904 ft 297 kts 298°
2026-04-27 22:49 41.95808 -71.85021 14628 ft 294 kts 304°
2026-04-27 22:49 41.96828 -71.87404 15347 ft 294 kts 303°
2026-04-27 22:49 41.97806 -71.89812 16083 ft 293 kts 303°
2026-04-27 22:50 41.98787 -71.92199 16818 ft 290 kts 304°
2026-04-27 22:50 41.99762 -71.94523 17568 ft 288 kts 305°
2026-04-27 22:50 42.00745 -71.96869 18244 ft 289 kts 305°
2026-04-27 22:50 42.01725 -71.99225 18861 ft 289 kts 306°
2026-04-27 22:51 42.02708 -72.01595 19380 ft 292 kts 306°
2026-04-27 22:51 42.03705 -72.03994 19860 ft 296 kts 306°
2026-04-27 22:51 42.04714 -72.06424 20350 ft 299 kts 306°
2026-04-27 22:51 42.05731 -72.08883 20849 ft 302 kts 305°
2026-04-27 22:52 42.06696 -72.11424 21353 ft 309 kts 300°
2026-04-27 22:52 42.07458 -72.14132 21821 ft 302 kts 311°
2026-04-27 22:52 42.08625 -72.16451 22394 ft 300 kts 312°
2026-04-27 22:52 42.09833 -72.18772 22790 ft 306 kts 309°
2026-04-27 22:53 42.10930 -72.21271 23208 ft 314 kts 305°
2026-04-27 22:53 42.11978 -72.23830 23612 ft 318 kts 306°
2026-04-27 22:53 42.13075 -72.26434 23985 ft 322 kts 306°
2026-04-27 22:53 42.14175 -72.29086 24343 ft 327 kts 306°
2026-04-27 22:54 42.15274 -72.31786 24708 ft 330 kts 305°
2026-04-27 22:54 42.16387 -72.34513 25067 ft 334 kts 306°
2026-04-27 22:54 42.17518 -72.37263 25438 ft 337 kts 306°
2026-04-27 22:54 42.18661 -72.40044 25802 ft 340 kts 305°
2026-04-27 22:55 42.19807 -72.42849 26162 ft 343 kts 305°
2026-04-27 22:55 42.20961 -72.45676 26543 ft 345 kts 305°
2026-04-27 22:55 42.22124 -72.48521 26924 ft 347 kts 305°
2026-04-27 22:55 42.23292 -72.51383 27320 ft 349 kts 305°
2026-04-27 22:56 42.24448 -72.54219 27709 ft 351 kts 305°
2026-04-27 22:56 42.25625 -72.57109 28107 ft 352 kts 305°
2026-04-27 22:56 42.26805 -72.60010 28511 ft 353 kts 305°
2026-04-27 22:56 42.27986 -72.62917 28896 ft 353 kts 305°
2026-04-27 22:57 42.29169 -72.65830 29310 ft 354 kts 305°
2026-04-27 22:57 42.30352 -72.68747 29733 ft 354 kts 304°
2026-04-27 22:57 42.31536 -72.71667 30178 ft 354 kts 304°
2026-04-27 22:57 42.32718 -72.74589 30555 ft 354 kts 305°
2026-04-27 22:58 42.33899 -72.77507 30916 ft 353 kts 305°
2026-04-27 22:58 42.35077 -72.80424 31276 ft 353 kts 305°
2026-04-27 22:58 42.36252 -72.83335 31642 ft 353 kts 305°
2026-04-27 22:58 42.37408 -72.86203 32022 ft 352 kts 305°
2026-04-27 22:59 42.38577 -72.89104 32396 ft 351 kts 305°
2026-04-27 22:59 42.39742 -72.92000 32774 ft 350 kts 305°
2026-04-27 22:59 42.40902 -72.94886 33157 ft 349 kts 305°
2026-04-27 23:00 42.44478 -73.03784 33263 ft 371 kts 304°
2026-04-27 23:00 42.46559 -73.08988 33267 ft 385 kts 304°
2026-04-27 23:01 42.49593 -73.16584 33252 ft 403 kts 304°
2026-04-27 23:01 42.52269 -73.23314 33250 ft 406 kts 304°
2026-04-27 23:02 42.54500 -73.28921 33242 ft 406 kts 304°
2026-04-27 23:02 42.57155 -73.35621 33231 ft 403 kts 303°
2026-04-27 23:03 42.59813 -73.42330 33229 ft 403 kts 303°
2026-04-27 23:03 42.62458 -73.49032 33229 ft 403 kts 303°
2026-04-27 23:04 42.65104 -73.55748 33222 ft 404 kts 303°
2026-04-27 23:04 42.67746 -73.62472 33218 ft 403 kts 303°
2026-04-27 23:05 42.70364 -73.69147 33209 ft 403 kts 303°
2026-04-27 23:05 42.72995 -73.75876 33211 ft 403 kts 303°
2026-04-27 23:06 42.75444 -73.82757 33216 ft 408 kts 296°
2026-04-27 23:06 42.76917 -73.90294 33220 ft 415 kts 289°
2026-04-27 23:07 42.78369 -73.97844 33225 ft 410 kts 294°
2026-04-27 23:07 42.80034 -74.05296 33221 ft 413 kts 291°
2026-04-27 23:08 42.81536 -74.12802 33241 ft 413 kts 292°
2026-04-27 23:08 42.83141 -74.20307 33242 ft 413 kts 292°
2026-04-27 23:09 42.84683 -74.27852 33239 ft 413 kts 292°
2026-04-27 23:09 42.86252 -74.35375 33238 ft 413 kts 292°
2026-04-27 23:10 42.87801 -74.42919 33243 ft 414 kts 291°
2026-04-27 23:10 42.89343 -74.50423 33243 ft 414 kts 291°
2026-04-27 23:11 42.90888 -74.57990 33232 ft 414 kts 291°
2026-04-27 23:11 42.92450 -74.65603 32819 ft 427 kts 291°
2026-04-27 23:12 42.93260 -74.69582 32518 ft 442 kts 291°
2026-04-27 23:12 42.94085 -74.73677 32233 ft 450 kts 291°
2026-04-27 23:12 42.94914 -74.77807 31945 ft 452 kts 290°
2026-04-27 23:12 42.95752 -74.81947 31659 ft 454 kts 290°
2026-04-27 23:13 42.96595 -74.86109 31372 ft 455 kts 290°
2026-04-27 23:13 42.97423 -74.90229 31087 ft 457 kts 290°
2026-04-27 23:13 42.98261 -74.94422 30807 ft 459 kts 290°
2026-04-27 23:13 42.99104 -74.98635 30514 ft 461 kts 290°
2026-04-27 23:14 42.99951 -75.02863 30226 ft 462 kts 290°
2026-04-27 23:14 43.00798 -75.07107 29852 ft 464 kts 289°
2026-04-27 23:14 43.01644 -75.11361 29523 ft 465 kts 289°
2026-04-27 23:14 43.02492 -75.15637 29163 ft 467 kts 288°
2026-04-27 23:15 43.03206 -75.19992 28820 ft 472 kts 285°
2026-04-27 23:15 43.03749 -75.24430 28467 ft 475 kts 283°
2026-04-27 23:15 43.04263 -75.28897 28128 ft 476 kts 284°
2026-04-27 23:15 43.04857 -75.33277 27786 ft 475 kts 285°
2026-04-27 23:16 43.05493 -75.37693 27448 ft 472 kts 284°
2026-04-27 23:16 43.06077 -75.42112 27117 ft 472 kts 283°
2026-04-27 23:16 43.06625 -75.46538 26771 ft 472 kts 283°
2026-04-27 23:16 43.07193 -75.50951 26443 ft 471 kts 284°
2026-04-27 23:17 43.07786 -75.55353 26120 ft 470 kts 284°
2026-04-27 23:17 43.08367 -75.59748 25810 ft 469 kts 283°
2026-04-27 23:17 43.08924 -75.64139 25487 ft 468 kts 283°
2026-04-27 23:17 43.09481 -75.68523 25176 ft 468 kts 283°
2026-04-27 23:18 43.10051 -75.72900 24721 ft 469 kts 283°
2026-04-27 23:18 43.10612 -75.77228 23923 ft 466 kts 283°
2026-04-27 23:18 43.11168 -75.81594 22141 ft 472 kts 282°
2026-04-27 23:18 43.11738 -75.86085 20192 ft 485 kts 282°
2026-04-27 23:19 43.12322 -75.90684 18354 ft 496 kts 281°
2026-04-27 23:19 43.12908 -75.95318 17039 ft 490 kts 281°
2026-04-27 23:19 43.13473 -75.99816 15811 ft 454 kts 281°
2026-04-27 23:19 43.13976 -76.03823 14580 ft 403 kts 281°
2026-04-27 23:20 43.14435 -76.07473 12576 ft 379 kts 280°
2026-04-27 23:20 43.14873 -76.10956 11057 ft 360 kts 280°
2026-04-27 23:20 43.15262 -76.14083 10974 ft 309 kts 279°
2026-04-27 23:20 43.15613 -76.16925 11005 ft 305 kts 279°
2026-04-27 23:21 43.15963 -76.19735 10985 ft 293 kts 279°
2026-04-27 23:21 43.16301 -76.22476 10990 ft 294 kts 279°
2026-04-27 23:21 43.16638 -76.25170 10992 ft 289 kts 279°
2026-04-27 23:21 43.16979 -76.27905 10993 ft 290 kts 278°
2026-04-27 23:22 43.17316 -76.30639 10997 ft 292 kts 279°
2026-04-27 23:22 43.17590 -76.33390 10985 ft 292 kts 273°
2026-04-27 23:22 43.17560 -76.36180 10657 ft 292 kts 263°
2026-04-27 23:22 43.17182 -76.38894 10353 ft 289 kts 253°
2026-04-27 23:23 43.16474 -76.41482 9863 ft 292 kts 243°
2026-04-27 23:23 43.15441 -76.43889 9349 ft 294 kts 233°
2026-04-27 23:23 43.14177 -76.46119 8689 ft 301 kts 229°
2026-04-27 23:23 43.12812 -76.48342 7961 ft 309 kts 229°
2026-04-27 23:24 43.11423 -76.50579 7256 ft 316 kts 227°
2026-04-27 23:24 43.09995 -76.52892 6561 ft 321 kts 227°
2026-04-27 23:24 43.08561 -76.55222 6084 ft 317 kts 225°
2026-04-27 23:24 43.06991 -76.57209 6012 ft 298 kts 215°
2026-04-27 23:25 43.05316 -76.58710 6004 ft 279 kts 206°
2026-04-27 23:25 43.03566 -76.59599 6007 ft 260 kts 183°
2026-04-27 23:25 43.01841 -76.59083 6019 ft 260 kts 149°
2026-04-27 23:25 43.00660 -76.57273 6033 ft 261 kts 114°
2026-04-27 23:26 43.00361 -76.54801 6020 ft 268 kts 93°
2026-04-27 23:26 43.00440 -76.52257 6019 ft 268 kts 90°
2026-04-27 23:26 43.00559 -76.49713 6011 ft 269 kts 88°
2026-04-27 23:26 43.00698 -76.47199 6020 ft 269 kts 88°
2026-04-27 23:27 43.00914 -76.44661 6014 ft 272 kts 73°
2026-04-27 23:27 43.01959 -76.42490 5856 ft 282 kts 41°
2026-04-27 23:27 43.03671 -76.41202 5515 ft 283 kts 23°
2026-04-27 23:27 43.05514 -76.40192 5191 ft 281 kts 24°
2026-04-27 23:28 43.07302 -76.39184 5198 ft 282 kts 24°
2026-04-27 23:28 43.09059 -76.37995 4773 ft 281 kts 41°
2026-04-27 23:28 43.10152 -76.35854 4379 ft 275 kts 76°
2026-04-27 23:28 43.10373 -76.33285 3936 ft 273 kts 94°
2026-04-27 23:29 43.10259 -76.30705 3316 ft 280 kts 95°
2026-04-27 23:29 43.10245 -76.28137 2708 ft 256 kts 89°
2026-04-27 23:29 43.10360 -76.25947 2382 ft 211 kts 88°
2026-04-27 23:29 43.10449 -76.24147 2090 ft 169 kts 90°
2026-04-27 23:30 43.10491 -76.22568 1867 ft 162 kts 91°
2026-04-27 23:30 43.10539 -76.21024 1652 ft 161 kts 90°
2026-04-27 23:30 43.10590 -76.19501 1431 ft 161 kts 91°
2026-04-27 23:30 43.10638 -76.17976 1220 ft 158 kts 89°
2026-04-27 23:31 43.10688 -76.16470 1012 ft 155 kts 88°
2026-04-27 23:31 43.10739 -76.14998 809 ft 157 kts 87°
2026-04-27 23:31 43.10787 -76.13565 612 ft 155 kts 88°
2026-04-27 23:31 43.10834 -76.12124 422 ft 135 kts 87°
2026-04-27 23:32 43.10869 -76.11187 422 ft 67 kts 86°
2026-04-27 23:32 43.10885 -76.10745 419 ft 28 kts 79°
2026-04-27 23:32 43.10934 -76.10674 417 ft 0 kts 355°
2026-04-27 23:32 43.10957 -76.10695 422 ft 8 kts 317°
2026-04-27 23:33 43.10970 -76.10714 426 ft 0 kts 312°
2026-04-27 23:34 43.10976 -76.10717 423 ft 4 kts 336°
2026-04-27 23:34 43.11025 -76.10722 422 ft 7 kts 358°
2026-04-27 23:35 43.11061 -76.10723 419 ft 4 kts
2026-04-27 23:35 43.11082 -76.10723 421 ft 3 kts
2026-04-27 23:35 43.11109 -76.10723 422 ft 4 kts
2026-04-27 23:35 43.11140 -76.10723 421 ft 5 kts 359°
2026-04-27 23:36 43.11177 -76.10731 418 ft 6 kts 338°
2026-04-27 23:36 43.11199 -76.10775 415 ft 5 kts 287°
2026-04-27 23:36 43.11203 -76.10829 417 ft 6 kts 272°
2026-04-27 23:36 43.11200 -76.10891 426 ft 7 kts 263°
2026-04-27 23:37 43.11202 -76.10818 416 ft 3 kts
2026-04-27 23:37 43.11235 -76.10821 425 ft 6 kts 355°
2026-04-27 23:37 43.11265 -76.10843 420 ft 5 kts 313°
2026-04-27 23:37 43.11274 -76.10866 416 ft 0 kts 292°